This is the latest recevied weather packets stored in our database for station/object KK6LZB. If no packets are shown the sender has not sent any weather packets the latest 10 day(s).
| Time | Temp. | Humidity | Pressure | Rain* | Wind** | Luminosity | Snow |
|---|---|---|---|---|---|---|---|
| 1777857645 | 16.67° C | 76% | 1015.7 hPa | 0 mm | - | 45 W/m² | - |
| 1777857341 | 16.67° C | 76% | 1015.8 hPa | 0 mm | - | 71 W/m² | - |
| 1777857037 | 16.67° C | 76% | 1015.8 hPa | 0 mm | - | 65 W/m² | - |
| 1777856733 | 16.67° C | 76% | 1015.5 hPa | 0 mm | - | 66 W/m² | - |
| 1777856430 | 16.67° C | 75% | 1015.5 hPa | 0 mm | - | 108 W/m² | - |
| 1777856126 | 16.67° C | 72% | 1015.7 hPa | 0 mm | - | 67 W/m² | - |
| 1777855824 | 17.22° C | 71% | 1015.6 hPa | 0 mm | - | 88 W/m² | - |
| 1777855522 | 17.78° C | 72% | 1015.3 hPa | 0 mm | - | 103 W/m² | - |
| 1777855218 | 17.78° C | 70% | 1015.4 hPa | 0 mm | - | 222 W/m² | - |
| 1777854914 | 17.22° C | 70% | 1015.2 hPa | 0 mm | - | 142 W/m² | - |
| 1777854612 | 17.22° C | 69% | 1015.5 hPa | 0 mm | - | 117 W/m² | - |
| 1777854309 | 17.78° C | 68% | 1015.4 hPa | 0 mm | - | 133 W/m² | - |
| 1777854006 | 17.78° C | 66% | 1015.5 hPa | 0 mm | - | 241 W/m² | - |
| 1777853703 | 17.78° C | 66% | 1015.5 hPa | 0 mm | - | 134 W/m² | - |
| 1777853399 | 18.33° C | 63% | 1015.1 hPa | 0 mm | - | 176 W/m² | - |
| 1777853097 | 17.78° C | 64% | 1015.3 hPa | 0 mm | - | 162 W/m² | - |
| 1777852794 | 17.78° C | 66% | 1015.1 hPa | 0 mm | - | 150 W/m² | - |
| 1777852492 | 17.78° C | 66% | 1014.9 hPa | 0 mm | - | 145 W/m² | - |
| 1777852188 | 18.33° C | 65% | 1015 hPa | 0 mm | - | 162 W/m² | - |
| 1777851886 | 18.89° C | 64% | 1014.8 hPa | 0 mm | - | 189 W/m² | - |
| 1777851584 | 18.33° C | 64% | 1014.7 hPa | 0 mm | - | 280 W/m² | - |
| 1777851280 | 18.33° C | 64% | 1014.6 hPa | 0 mm | - | 206 W/m² | - |
| 1777850977 | 18.89° C | 63% | 1014.7 hPa | 0 mm | - | 229 W/m² | - |
| 1777850674 | 18.89° C | 64% | 1015.1 hPa | 0 mm | - | 229 W/m² | - |
| 1777850372 | 18.89° C | 62% | 1015.1 hPa | 0 mm | - | 231 W/m² | - |
* Rain latest hour (hover to see other rain measurements)
** Current wind speed in m/s (hover to see current wind gust speed)